| time (UTC) | temp F | wind direction | speed MPH | gust MPH | rain 1hr in | rain 24hr in | rain mn in | humidity % | barometer mb |
| 20260903170641 | 80 | 114 | 5.0 | 17.0 | 0.00 | 0.00 | 0.00 | 9 | 1017.8 |
| 20260903170135 | 80 | 169 | 6.0 | 14.0 | 0.00 | 0.00 | 0.00 | 9 | 1017.8 |
| 20260903165629 | 79 | 165 | 7.0 | 15.0 | 0.00 | 0.00 | 0.00 | 9 | 1017.8 |
| 20260903165123 | 79 | 122 | 6.0 | 17.0 | 0.00 | 0.00 | 0.00 | 10 | 1017.8 |
| 20260903164111 | 79 | 101 | 6.0 | 17.0 | 0.00 | 0.00 | 0.00 | 10 | 1017.8 |
| 20260903163605 | 78 | 258 | 7.0 | 15.0 | 0.00 | 0.00 | 0.00 | 10 | 1017.8 |
| 20260903162553 | 78 | 148 | 7.0 | 17.0 | 0.00 | 0.00 | 0.00 | 10 | 1017.8 |
| 20260903161541 | 78 | 160 | 7.0 | 20.0 | 0.00 | 0.00 | 0.00 | 10 | 1018.0 |
| 20260903161035 | 77 | 120 | 5.0 | 20.0 | 0.00 | 0.00 | 0.00 | 10 | 1017.8 |
| 20260903160528 | 78 | 178 | 4.0 | 12.0 | 0.00 | 0.00 | 0.00 | 10 | 1018.0 |
| 20260903160023 | 77 | 203 | 5.0 | 18.0 | 0.00 | 0.00 | 0.00 | 10 | 1017.8 |
| 20260903155517 | 77 | 353 | 6.0 | 18.0 | 0.00 | 0.00 | 0.00 | 10 | 1017.8 |
| 20260903155011 | 76 | 119 | 5.0 | 13.0 | 0.00 | 0.00 | 0.00 | 12 | 1017.7 |
| 20260903154508 | 76 | 87 | 6.0 | 18.0 | 0.00 | 0.00 | 0.00 | 12 | 1017.7 |
| 20260903153508 | 75 | 145 | 5.0 | 17.0 | 0.00 | 0.00 | 0.00 | 12 | 1017.7 |
| 20260903153008 | 75 | 251 | 4.0 | 14.0 | 0.00 | 0.00 | 0.00 | 13 | 1017.7 |
| 20260903152508 | 75 | 323 | 3.0 | 16.0 | 0.00 | 0.00 | 0.00 | 13 | 1017.7 |
| 20260903152010 | 74 | 47 | 4.0 | 16.0 | 0.00 | 0.00 | 0.00 | 13 | 1017.8 |
| 20260903151506 | 74 | 95 | 3.0 | 13.0 | 0.00 | 0.00 | 0.00 | 12 | 1017.7 |
| 20260903151007 | 74 | 294 | 2.0 | 13.0 | 0.00 | 0.00 | 0.00 | 12 | 1017.8 |
| 20260903150507 | 74 | 130 | 2.0 | 8.0 | 0.00 | 0.00 | 0.00 | 11 | 1018.0 |
| 20260903150008 | 73 | 349 | 2.0 | 8.0 | 0.00 | 0.00 | 0.00 | 11 | 1017.8 |
| 20260903144505 | 72 | 225 | 4.0 | 13.0 | 0.00 | 0.00 | 0.00 | 10 | 1018.0 |
| 20260903144002 | 72 | 120 | 4.0 | 12.0 | 0.00 | 0.00 | 0.00 | 11 | 1017.8 |
| 20260903143502 | 72 | 0.0 | 0.0 | 0.00 | 0.00 | 0.00 | 11 | 1017.7 | |
| 20260903143005 | 72 | 0.0 | 0.0 | 0.00 | 0.00 | 0.00 | 10 | 1017.5 |